Wind_Speed
32 37 38 38 39 36 39 36 34 39 38 32 43 53 58 60 50 45 40 36 35 33 30 30 26 25 26 26 26 24 22 23 20 17 15 14 14 13 14 13 12 11 9 7 5 4 5 5 4
35 36 40 43 42 40 33 30 27 28 36 37 33 44 64 56 45 46 44 41 39 35 33 32 29 28 28 28 27 27 24 21 21 20 18 16 14 13 12 12 12 11 10 8 7 5 4 5 5
40 36 39 43 46 40 37 32 28 29 37 39 36 39 60 56 52 49 47 44 43 41 37 34 32 31 30 29 29 28 28 25 22 20 20 20 18 15 14 13 13 12 11 10 9 8 7 5 5
41 42 41 41 43 42 39 36 33 34 34 37 34 41 40 65 58 50 46 47 46 43 41 38 33 33 32 31 30 29 29 30 29 26 23 21 20 19 18 17 16 15 13 11 11 10 9 9 7
42 45 44 41 35 45 45 39 39 36 33 36 33 33 32 61 67 60 52 54 45 48 42 40 37 33 33 32 32 32 32 30 30 29 28 25 22 21 20 19 18 17 17 15 14 14 11 10 10
43 45 44 41 37 40 45 45 38 36 37 35 36 40 33 44 62 67 57 50 51 44 47 39 42 38 34 32 34 34 34 33 32 30 29 27 25 24 22 21 20 20 19 18 18 17 17 14 12
44 44 42 41 41 39 38 48 40 40 41 37 36 34 44 30 48 66 65 55 60 47 49 50 42 43 40 40 38 37 37 36 35 34 32 29 28 27 25 23 22 21 20 20 20 19 18 18 17
44 44 44 41 42 42 42 44 45 44 44 41 44 39 33 34 49 58 67 62 58 56 57 48 50 45 44 43 42 40 39 38 38 37 34 32 30 27 25 25 24 23 22 21 21 20 19 18 17
45 47 43 42 45 45 45 40 46 48 47 44 47 43 35 34 36 56 66 68 53 59 52 52 55 47 49 46 43 43 42 40 37 35 33 33 32 30 30 29 26 24 23 21 20 19 18 17 17
47 47 43 46 46 49 46 40 45 51 53 47 48 46 40 38 39 39 44 49 67 59 55 54 49 53 50 51 48 43 40 40 38 36 33 32 31 30 30 27 26 25 23 21 21 19 17 16 15
45 46 45 47 46 46 41 40 46 51 56 53 50 50 46 43 41 41 41 34 63 69 58 52 54 59 53 53 51 47 45 44 41 42 37 33 34 33 32 29 28 27 25 23 22 21 22 21 21
45 45 45 48 43 44 45 43 45 53 60 57 54 52 50 48 46 43 42 40 39 44 57 54 48 51 57 54 52 53 52 50 48 44 40 39 38 39 37 36 36 33 31 28 27 26 26 25 25
42 43 45 47 44 45 44 44 46 52 60 60 57 55 53 50 50 47 45 44 42 37 38 39 42 48 45 48 50 51 50 50 49 49 45 46 45 41 41 40 35 35 38 35 34 32 31 29 27
40 42 44 42 43 43 41 41 44 52 58 61 59 56 55 52 51 50 50 50 45 43 38 38 37 38 42 40 44 42 44 44 41 40 44 47 47 41 41 39 33 30 29 35 33 32 32 32 30
37 41 43 42 41 40 38 39 41 47 55 59 61 58 55 54 53 52 53 51 53 51 50 47 47 46 43 39 40 39 39 39 41 41 41 40 39 42 44 44 38 39 37 40 35 33 35 34 34
38 40 42 45 40 40 37 36 45 45 53 56 61 60 58 56 55 55 53 54 52 55 54 54 53 52 49 50 48 45 45 42 44 44 45 46 47 47 46 46 44 42 38 37 37 39 38 37 36
37 37 39 44 42 43 43 39 39 46 46 52 58 61 60 58 57 56 55 54 54 53 54 54 54 53 54 54 53 51 52 49 48 46 50 50 50 50 50 50 48 46 45 45 44 44 42 40 38
35 35 38 39 43 44 45 41 42 42 51 51 55 60 61 60 59 59 58 56 54 54 54 54 55 53 53 53 53 52 50 50 50 48 47 49 51 51 50 50 50 48 47 46 46 46 44 41 39
35 34 35 39 39 41 43 43 45 44 45 56 52 58 61 62 62 62 61 59 57 56 56 55 56 56 55 54 53 52 50 49 48 48 47 47 48 49 49 48 48 47 48 47 46 45 43 41 38
33 32 30 37 34 40 40 41 46 45 43 49 54 52 58 63 63 63 63 63 62 60 59 58 58 58 57 55 54 53 53 52 50 49 49 47 48 47 47 48 49 48 48 46 45 43 42 40 39
33 35 34 33 32 36 37 40 45 46 47 47 52 54 53 58 61 65 64 65 65 64 63 62 60 60 59 59 58 57 56 54 53 52 51 50 49 47 47 47 47 47 46 46 45 44 42 42 41
36 33 34 34 38 38 35 38 43 43 47 49 49 53 53 53 58 59 67 66 66 66 67 66 66 64 62 61 61 60 59 58 57 55 54 53 52 50 50 48 48 48 48 47 47 46 45 44 43
38 37 37 36 37 39 39 38 42 42 44 46 50 51 53 53 53 56 60 63 68 66 67 67 68 69 68 67 66 64 63 62 61 60 58 56 56 54 53 52 52 51 50 50 49 49 48 48 47
40 39 39 39 39 41 40 38 43 40 40 45 46 50 53 54 54 53 54 60 61 64 67 68 67 68 69 71 70 69 68 67 66 65 64 62 61 60 58 57 56 55 54 53 52 52 52 51 50
36 36 36 39 39 41 40 42 43 41 37 39 44 47 49 54 56 56 55 55 58 61 60 63 65 68 69 67 68 70 71 70 70 70 69 67 66 65 64 62 61 60 60 59 57 57 57 56 55
35 34 32 30 31 36 38 42 44 45 39 37 39 42 48 50 53 57 59 58 59 59 63 64 63 64 64 66 70 71 69 69 71 71 72 71 71 70 69 68 67 66 65 64 63 62 61 61 61
34 36 37 36 37 38 39 39 39 40 43 46 41 39 41 45 51 53 57 60 61 62 64 65 67 67 65 64 65 65 67 70 72 74 73 72 72 72 73 73 72 71 70 70 69 67 66 66 65
28 30 31 35 38 39 42 42 44 41 39 41 43 46 44 43 44 49 54 56 59 62 63 66 66 68 69 70 70 68 67 67 68 68 69 72 75 75 75 73 74 73 73 73 72 71 71 71 71
27 27 29 33 36 38 37 43 42 44 45 45 44 45 47 50 46 45 47 52 57 60 62 63 64 66 68 70 71 72 72 73 72 70 70 70 71 71 71 73 75 75 75 74 74 74 74 74 74
26 27 28 30 35 38 41 45 45 45 45 46 48 47 48 49 51 52 49 49 52 56 60 62 62 63 65 67 68 70 71 72 73 73 74 74 75 75 74 74 74 74 73 73 73 73 74 74 74
Wind_Direction
258 251 248 242 245 245 244 249 248 248 240 242 230 218 206 210 207 214 210 212 215 214 214 216 212 214 213 213 213 214 215 214 217 213 212 212 212 216 223 226 232 236 235 231 219 205 195 196 204
262 257 249 245 243 240 240 254 253 242 244 240 232 235 216 210 204 211 211 208 214 216 217 217 214 218 216 216 218 218 218 215 215 217 217 219 219 221 231 236 236 238 239 242 253 248 240 226 213
258 255 254 248 241 241 244 247 247 243 237 230 231 237 227 210 208 209 210 209 211 215 216 217 218 218 218 217 218 219 219 218 217 216 216 216 219 218 222 234 242 251 251 253 255 265 271 274 266
252 253 253 255 245 239 242 246 237 243 239 232 223 232 236 215 213 207 211 208 211 213 217 216 213 213 216 216 219 221 220 221 222 220 221 219 216 218 223 227 238 248 256 261 270 271 272 282 288
246 250 253 257 252 246 243 241 241 239 235 228 225 227 235 226 215 206 199 210 216 210 214 217 212 212 214 214 217 220 222 222 224 224 227 225 223 221 222 226 235 245 254 258 264 268 269 269 279
245 246 250 257 255 248 245 240 245 239 238 230 235 232 238 234 233 219 199 208 201 218 209 211 213 212 215 217 217 218 220 221 223 225 227 229 229 229 229 230 232 239 247 254 257 261 264 269 269
245 245 248 250 251 249 246 241 235 241 240 233 224 228 235 244 238 229 213 208 210 208 215 211 204 208 210 214 216 218 220 223 224 224 226 227 230 232 235 238 237 237 241 244 251 255 260 263 268
244 244 243 246 250 247 246 241 232 235 235 233 234 234 230 238 230 232 223 209 207 216 214 215 215 213 216 220 217 220 223 226 226 229 230 231 232 233 232 233 236 239 238 240 244 248 253 258 263
244 243 241 241 244 246 244 245 234 232 236 230 237 233 227 228 227 212 223 218 214 211 213 206 212 209 217 214 216 220 221 226 230 233 232 233 231 233 234 235 234 235 236 236 238 243 249 253 258
244 243 241 240 241 245 245 242 240 233 234 231 231 235 230 230 228 223 214 227 219 214 210 209 207 216 216 219 217 217 222 225 226 230 231 231 234 234 236 237 236 236 234 228 234 240 244 250 255
245 242 242 240 239 245 247 239 238 234 233 233 231 230 229 229 232 229 225 218 219 222 225 223 226 222 228 222 216 214 216 219 222 223 225 231 235 237 236 237 235 232 233 228 230 236 244 249 254
246 243 242 242 239 241 243 241 237 233 234 233 231 231 230 227 227 229 229 226 215 212 215 215 218 218 218 214 213 218 219 221 223 222 221 224 230 237 237 241 242 238 234 236 237 240 244 243 248
246 244 241 243 241 240 240 241 238 233 233 233 233 231 230 227 225 224 227 228 231 228 213 218 218 211 213 215 216 216 221 223 226 224 224 227 232 238 241 244 240 238 233 240 241 239 243 246 247
245 247 245 242 242 241 241 242 243 234 231 233 233 232 231 229 227 224 221 224 231 234 232 231 230 225 227 226 222 225 222 225 230 228 227 232 231 238 241 237 235 242 245 247 245 243 245 250 254
249 246 246 243 242 242 241 242 241 238 232 235 234 232 231 230 228 226 224 222 222 227 230 231 231 234 237 236 232 239 238 237 240 239 242 243 232 236 240 248 244 239 245 246 244 248 249 251 252
250 247 246 246 242 244 244 239 239 234 230 234 234 233 230 229 228 228 225 223 224 224 227 229 230 230 235 237 241 241 242 236 239 242 242 242 240 240 245 245 247 253 252 248 253 252 252 254 256
250 249 248 247 243 243 243 241 243 239 234 237 233 232 231 229 228 228 229 227 224 225 225 228 229 230 229 231 236 237 240 240 242 239 241 239 243 243 239 245 249 248 247 248 249 252 256 256 254
252 247 249 248 242 243 242 241 244 243 234 235 236 232 230 228 227 227 229 228 227 227 227 227 228 229 230 231 232 234 236 237 237 238 238 239 240 243 244 244 246 247 248 248 249 250 250 251 253
253 250 247 247 247 244 244 240 242 241 238 234 236 234 232 230 227 226 228 230 230 229 228 228 229 230 231 232 233 233 234 234 236 236 237 237 239 239 240 243 245 245 245 245 246 247 247 247 246
252 247 247 248 244 246 243 240 240 240 238 235 236 237 234 231 230 228 227 229 230 231 231 231 231 231 231 232 233 234 235 235 235 236 237 236 237 237 239 239 241 242 243 243 243 243 244 243 243
246 248 251 252 248 248 246 241 243 238 238 237 235 238 237 237 230 231 228 229 230 232 232 233 233 234 234 234 235 235 236 237 237 237 237 238 238 238 239 239 240 241 242 243 243 241 240 240 241
251 254 256 256 253 251 249 248 242 239 238 236 236 236 239 237 238 229 232 230 230 232 233 234 235 235 235 236 237 238 238 239 239 240 241 241 241 241 240 240 241 241 241 241 241 241 240 239 240
255 257 260 260 259 251 245 248 249 241 239 238 236 235 237 239 237 238 233 230 231 231 233 234 235 236 237 238 238 238 239 240 240 241 242 242 243 242 243 242 243 243 242 242 241 241 241 241 242
259 259 259 258 256 254 247 244 247 246 240 239 238 235 235 236 239 238 235 240 236 231 233 233 235 237 238 238 239 240 240 241 242 242 243 243 244 244 244 244 245 245 245 245 245 245 245 246 246
257 254 253 253 252 254 250 243 246 246 243 241 239 239 236 235 236 237 238 236 236 240 239 233 233 236 237 238 239 240 241 242 242 243 244 244 245 245 246 246 246 247 247 247 248 248 249 250 251
250 248 244 245 252 254 251 248 247 243 243 242 240 239 238 236 235 236 237 237 238 237 238 240 240 237 236 237 239 239 240 241 242 243 244 245 245 246 247 247 248 248 248 249 249 250 251 252 253
248 247 246 246 249 254 254 251 250 246 245 244 243 240 239 238 238 237 236 236 237 238 238 237 238 240 241 242 241 241 241 241 242 243 243 244 245 246 246 247 248 248 249 250 251 251 252 253 254
248 249 246 245 246 249 253 253 252 249 246 244 243 242 241 239 238 238 238 237 237 237 238 239 239 239 239 239 240 241 243 244 244 243 244 245 246 246 247 248 249 249 250 250 251 252 253 254 255
252 250 249 248 250 247 249 254 252 251 248 246 245 243 240 238 237 237 238 238 238 237 238 239 240 240 240 240 240 241 241 241 242 243 244 245 246 246 247 248 249 250 251 251 252 253 254 254 255
250 253 253 252 252 251 251 253 256 257 255 250 246 244 243 242 239 238 237 237 239 239 238 238 240 241 240 241 241 242 243 243 243 243 243 244 244 245 246 247 248 248 249 250 252 253 253 254 255
Height
5743 5744 5744 5746 5748 5749 5754 5759 5760 5759 5762 5767 5769 5774 5775 5779 5787 5795 5799 5804 5808 5811 5814 5817 5820 5823 5825 5828 5831 5833 5835 5837 5840 5843 5845 5847 5848 5850 5851 5852 5853 5853 5855 5855 5856 5856 5856 5856 5858
5735 5736 5736 5738 5742 5744 5753 5754 5755 5756 5757 5759 5763 5765 5769 5773 5780 5786 5793 5798 5804 5806 5809 5812 5816 5819 5821 5824 5828 5831 5833 5835 5838 5840 5842 5845 5847 5849 5850 5851 5852 5852 5854 5855 5856 5856 5857 5856 5856
5727 5728 5728 5729 5735 5742 5748 5748 5749 5749 5748 5752 5756 5759 5763 5768 5773 5778 5785 5791 5796 5800 5803 5807 5811 5815 5818 5820 5824 5828 5830 5833 5835 5837 5839 5841 5844 5846 5848 5849 5850 5851 5853 5855 5855 5856 5857 5857 5857
5719 5719 5720 5721 5730 5738 5738 5740 5742 5741 5744 5746 5748 5751 5757 5759 5765 5770 5778 5783 5788 5793 5798 5802 5805 5810 5813 5817 5820 5823 5827 5829 5831 5833 5836 5838 5841 5843 5845 5846 5847 5849 5851 5853 5854 5855 5856 5856 5857
5710 5711 5711 5717 5724 5725 5728 5730 5734 5736 5739 5740 5740 5746 5747 5751 5756 5757 5766 5773 5780 5783 5791 5796 5800 5805 5809 5813 5815 5819 5821 5824 5827 5830 5832 5835 5838 5840 5842 5843 5845 5847 5848 5850 5851 5853 5855 5855 5856
5700 5702 5705 5712 5714 5713 5717 5722 5725 5729 5730 5735 5735 5736 5741 5743 5748 5754 5759 5766 5774 5777 5784 5790 5795 5800 5804 5808 5810 5813 5817 5820 5822 5825 5829 5832 5835 5837 5839 5841 5843 5844 5846 5848 5849 5850 5852 5854 5855
5691 5693 5700 5700 5705 5706 5711 5711 5719 5720 5721 5728 5729 5731 5737 5737 5742 5750 5752 5758 5764 5768 5774 5781 5787 5790 5793 5797 5802 5807 5811 5815 5818 5820 5823 5827 5830 5833 5836 5838 5840 5841 5843 5845 5847 5848 5849 5851 5853
5682 5684 5688 5694 5693 5698 5698 5701 5708 5710 5713 5719 5720 5725 5731 5735 5737 5740 5745 5751 5755 5761 5767 5772 5779 5781 5787 5792 5797 5801 5806 5809 5813 5816 5820 5824 5827 5829 5832 5834 5836 5838 5840 5841 5843 5844 5846 5848 5850
5671 5674 5682 5684 5680 5685 5685 5692 5697 5701 5705 5711 5713 5717 5724 5727 5731 5735 5736 5743 5746 5752 5759 5764 5768 5775 5778 5783 5789 5794 5798 5803 5807 5812 5815 5819 5822 5825 5827 5829 5832 5834 5836 5838 5839 5841 5842 5845 5847
5661 5665 5672 5669 5671 5671 5675 5683 5684 5692 5695 5703 5707 5710 5715 5719 5723 5728 5730 5733 5741 5747 5753 5757 5760 5767 5771 5776 5781 5786 5792 5797 5801 5806 5810 5814 5817 5819 5822 5825 5827 5831 5833 5835 5836 5838 5839 5841 5843
5652 5656 5657 5658 5662 5664 5667 5673 5676 5682 5686 5692 5697 5701 5706 5711 5715 5721 5723 5723 5730 5736 5742 5747 5754 5759 5764 5769 5773 5778 5784 5788 5794 5798 5804 5808 5811 5814 5817 5820 5823 5825 5829 5830 5833 5834 5835 5837 5838
5641 5644 5645 5646 5654 5654 5656 5660 5666 5671 5672 5682 5687 5693 5697 5702 5706 5711 5716 5720 5723 5727 5733 5740 5744 5749 5756 5762 5766 5770 5775 5781 5786 5791 5796 5800 5803 5807 5810 5814 5817 5820 5823 5826 5828 5830 5832 5832 5833
5632 5633 5635 5636 5642 5644 5648 5650 5654 5662 5665 5671 5676 5681 5687 5693 5698 5701 5708 5715 5716 5720 5722 5730 5736 5742 5747 5753 5759 5765 5770 5773 5778 5782 5788 5792 5796 5800 5804 5807 5810 5812 5817 5819 5822 5824 5827 5829 5830
5623 5625 5626 5628 5631 5634 5638 5640 5645 5651 5658 5659 5666 5670 5676 5684 5688 5693 5699 5705 5710 5714 5717 5723 5728 5733 5738 5743 5748 5754 5760 5765 5770 5775 5779 5783 5788 5791 5795 5799 5802 5805 5809 5812 5814 5818 5821 5823 5826
5613 5614 5615 5619 5622 5624 5629 5633 5636 5639 5646 5649 5654 5659 5664 5673 5679 5685 5689 5695 5702 5708 5713 5718 5721 5726 5730 5735 5740 5744 5751 5758 5762 5767 5773 5776 5780 5785 5789 5791 5794 5797 5801 5804 5808 5811 5814 5818 5819
5602 5604 5607 5608 5613 5616 5620 5626 5624 5630 5634 5637 5642 5648 5654 5661 5668 5674 5681 5686 5692 5698 5705 5710 5716 5721 5725 5731 5734 5739 5743 5750 5754 5760 5765 5770 5774 5777 5781 5785 5789 5792 5795 5797 5801 5806 5810 5812 5814
5593 5596 5598 5599 5603 5607 5609 5615 5616 5619 5624 5626 5630 5637 5643 5649 5657 5665 5671 5677 5682 5688 5694 5701 5707 5712 5717 5722 5727 5732 5738 5742 5747 5751 5757 5762 5765 5769 5773 5776 5780 5784 5789 5792 5795 5799 5802 5805 5808
5584 5587 5587 5590 5594 5596 5599 5606 5607 5609 5613 5615 5619 5625 5631 5638 5644 5653 5659 5666 5672 5678 5684 5690 5697 5702 5707 5712 5717 5723 5728 5733 5738 5743 5747 5752 5757 5761 5765 5768 5771 5775 5779 5782 5787 5791 5793 5797 5800
5574 5577 5579 5579 5585 5586 5590 5595 5595 5598 5602 5605 5608 5614 5619 5625 5630 5639 5648 5655 5662 5668 5674 5679 5685 5691 5697 5702 5707 5712 5718 5723 5728 5733 5737 5742 5747 5751 5755 5759 5762 5766 5770 5773 5777 5781 5784 5788 5790
5565 5567 5570 5569 5575 5576 5580 5585 5583 5588 5594 5594 5599 5602 5607 5614 5621 5628 5635 5643 5650 5657 5663 5668 5674 5680 5686 5691 5696 5702 5707 5712 5717 5723 5728 5733 5737 5741 5746 5750 5754 5757 5762 5765 5768 5771 5776 5779 5782
5556 5558 5560 5562 5566 5566 5570 5574 5572 5579 5582 5586 5589 5592 5597 5603 5610 5616 5624 5630 5636 5644 5650 5656 5663 5669 5675 5680 5685 5691 5697 5702 5707 5713 5718 5722 5727 5732 5736 5741 5745 5749 5753 5757 5760 5763 5766 5771 5774
5547 5550 5550 5552 5555 5557 5561 5563 5563 5569 5571 5576 5580 5583 5587 5592 5598 5604 5613 5617 5624 5628 5636 5644 5651 5657 5663 5668 5674 5680 5686 5691 5696 5702 5707 5712 5717 5722 5726 5731 5735 5740 5744 5747 5752 5755 5758 5761 5765
5538 5540 5541 5543 5544 5546 5551 5553 5551 5558 5562 5566 5570 5575 5578 5581 5587 5592 5599 5603 5608 5615 5622 5629 5636 5643 5649 5655 5661 5667 5674 5679 5684 5690 5695 5700 5705 5710 5715 5720 5725 5729 5733 5737 5741 5745 5749 5753 5756
5529 5531 5532 5533 5534 5535 5539 5543 5542 5548 5553 5556 5560 5564 5568 5572 5575 5580 5585 5588 5595 5602 5608 5614 5621 5627 5634 5640 5647 5654 5660 5666 5672 5677 5683 5687 5693 5698 5703 5708 5713 5717 5721 5726 5730 5734 5738 5742 5746
5518 5521 5523 5523 5524 5526 5530 5532 5533 5539 5543 5546 5549 5553 5557 5562 5566 5569 5573 5579 5583 5588 5593 5599 5605 5612 5618 5625 5632 5639 5645 5651 5657 5663 5670 5673 5679 5685 5690 5695 5700 5704 5709 5713 5718 5722 5726 5730 5733
5509 5511 5514 5514 5514 5514 5518 5518 5523 5528 5532 5536 5539 5542 5546 5550 5554 5558 5562 5567 5570 5575 5580 5584 5589 5595 5602 5609 5616 5623 5628 5634 5641 5647 5653 5658 5664 5670 5675 5680 5686 5690 5695 5700 5704 5709 5713 5717 5721
5499 5501 5504 5505 5506 5506 5506 5510 5513 5516 5520 5525 5529 5532 5535 5538 5542 5545 5550 5554 5557 5562 5565 5570 5577 5583 5589 5595 5600 5606 5612 5618 5624 5631 5636 5642 5647 5654 5659 5665 5670 5675 5680 5684 5689 5693 5698 5702 5707
5490 5492 5494 5494 5496 5497 5497 5499 5499 5506 5510 5513 5517 5521 5524 5527 5530 5533 5537 5541 5544 5548 5552 5558 5563 5569 5575 5580 5586 5591 5597 5602 5608 5614 5620 5626 5632 5638 5643 5648 5653 5658 5663 5668 5672 5677 5681 5686 5690
5482 5482 5484 5485 5486 5487 5489 5486 5489 5493 5497 5501 5504 5507 5510 5515 5518 5521 5524 5527 5531 5535 5540 5545 5550 5555 5561 5566 5572 5577 5582 5587 5593 5598 5604 5610 5616 5621 5626 5631 5636 5642 5647 5651 5656 5660 5664 5669 5673
5473 5474 5475 5475 5476 5476 5477 5478 5478 5480 5483 5487 5490 5492 5496 5500 5504 5509 5512 5515 5518 5522 5527 5531 5536 5541 5546 5551 5556 5561 5566 5571 5577 5582 5588 5594 5599 5605 5610 5614 5619 5625 5630 5634 5639 5643 5648 5652 5655